Regional Weather Roundup
Issued by NWS

Home | Current Version | Previous Version | Text Only | Print | Product List | Glossary Off
Versions: 1 2 3 4 5 6 7 8 9 10 11 12 13 14 15 16 17 18 19 20 21 22 23 24 25 26 27 28 29 30 31 32 33 34 35 36 37 38 39 40 41 42 43 44 45 46 47 48 49 50

000
ASUS43 KMPX 281001
RWRMN
WEATHER ROUNDUP FOR MINNESOTA
NATIONAL WEATHER SERVICE TWIN CITIES/CHANHASSEN MN
500 AM CDT WED JUN 28 2017


NOTE: "FAIR" INDICATES FEW OR NO CLOUDS BELOW 12,000 FEET WITH NO
SIGNIFICANT WEATHER AND/OR OBSTRUCTIONS TO VISIBILITY. N/A MEANS
CURRENT SKY AND/OR WEATHER CONDITIONS ARE NOT AVAILABLE.

MNZ060>063-068>070-281100-
   Twin Cities Metro

CITY           SKY/WX    TMP DP  RH WIND       PRES   REMARKS
TWIN CITIES    TSTM      62  59  90 SE12      29.70F
ST PAUL        TSTM      60  60 100 SE16      29.71F FOG
CRYSTAL        LGT RAIN  62  58  86 S14       29.67F
BLAINE         RAIN      63  61  94 S14       29.68S
LAKEVILLE      RAIN      59  59 100 E7        29.70F
EDEN PRAIRIE   LGT RAIN  63  59  87 E14       29.67F
SOUTH ST PAUL  TSTM      60  59  97 SE6       29.72S
LAKE ELMO      TSTM      61  59  94 S13       29.72F
$$
MNZ001>005-007-008-013>017-022>024-027-028-281100-
   Northwest Minnesota

CITY           SKY/WX    TMP DP  RH WIND       PRES   REMARKS
BEMIDJI        LGT RAIN  58  53  84 SE6       29.62F
HALLOCK        DRIZZLE   61  55  82 S14       29.55R
ROSEAU         CLOUDY    63  54  72 S6        29.56F
WARROAD        CLOUDY    63  54  72 SE8       29.57F
THIEF RVR FALL CLOUDY    61  57  88 SE17      29.55F
CROOKSTON      CLOUDY    61  59  94 SE14      29.51F
FOSSTON        DRIZZLE   57  54  88 SE10G18   29.58F
DETROIT LAKES  LGT RAIN  61  57  88 SE7       29.58F
MOORHEAD       CLOUDY    63  59  88 SE15G24   29.48S
MAHNOMEN       LGT RAIN  58  56  93 SE12      29.54F
$$
MNZ006-009>011-018-025>026-281100-
   North Central Minnesota

CITY           SKY/WX    TMP DP  RH WIND       PRES   REMARKS
FLAG ISLAND    CLOUDY    63  52  67 SE9       29.58F
INTL FALLS     CLOUDY    52  46  80 SE6       29.66R
WASKISH        CLOUDY    63  52  67 S7        29.62S
BIG FORK       LGT RAIN  55  48  76 CALM      29.67F
LONGVILLE      LGT RAIN  55  54  94 SE3       29.65F
GRAND RAPIDS   CLOUDY    57  47  69 SE7       29.70R
CRANE LAKE     CLOUDY    45  45 100 CALM      29.71R
ORR            CLOUDY    55  45  67 SE7       29.68R
COOK           CLOUDY    52  46  82 E5        29.71S
WALKER         FAIR      58  52  79 SE5       29.63F
$$
MNZ012-019>021-037-281100-
   Northeast Minnesota

CITY           SKY/WX    TMP DP  RH WIND       PRES   REMARKS
DULUTH         CLOUDY    58  47  66 SE8       29.73F
ELY            CLOUDY    55  45  67 S9        29.74R
HIBBING        CLOUDY    50  47  89 SE6       29.71S
EVELETH        CLOUDY    53  45  75 CALM      29.72F
DULUTH HARBOR  CLOUDY    59  52  77 CALM      29.73S
TWO HARBORS    CLOUDY    50  45  81 CALM      29.73F
SILVER BAY     CLOUDY    46  45  93 CALM      29.75R
G MARAIS ARPRT CLOUDY    46  43  87 CALM      29.80S
$$
MNZ029>031-032-039>041-046>048-054>057-064-281100-
   West Central Minnesota

CITY           SKY/WX    TMP DP  RH WIND       PRES   REMARKS
FERGUS FALLS   CLOUDY    63  63 100 SE16G22   29.50F
WHEATON        LGT RAIN  63  57  82 E13       29.50R
MORRIS         CLOUDY    66  61  82 SE15G22   29.50F
ALEXANDRIA     CLOUDY    62  60  93 SE17G31   29.58S
ELBOW LAKE     CLOUDY    64  61  89 SE14G23   29.53S
WADENA         CLOUDY    57  55  94 E5        29.60F
GLENWOOD       CLOUDY    61  59  94 E13G22    29.59R
APPLETON       CLOUDY    68  61  77 SE13G18   29.51S
BENSON         CLOUDY    66  61  82 S10G20    29.54F
ORTONVILLE     CLOUDY    68  63  83 SE10G20   29.47F
MADISON        MOCLDY    70  68  94 S14       29.51R
WILLMAR        LGT RAIN  63  63 100 SE17G26   29.57S
$$
MNZ033>034-036-042>043-049>051-058-059-281100-
   Central Minnesota

CITY           SKY/WX    TMP DP  RH WIND       PRES   REMARKS
ST CLOUD       LGT RAIN  62  61  96 S18G25    29.64F
SAUK CENTRE    CLOUDY    60  58  95 SE15      29.60F
PAYNESVILLE    LGT RAIN  61  61 100 SE9       29.60F
AITKIN         LGT RAIN  57  48  72 SE5       29.63F
PINE RIVER     HVY RAIN  57  55  94 E5        29.68S
STAPLES        LGT RAIN  57  54  88 SE3       29.61S
LONG PRAIRIE   LGT RAIN  59  59 100 E16G22    29.59F
LITTLE FALLS   RAIN      59  54  82 SE9       29.61F
LITCHFIELD     LGT RAIN  63  63 100 SE12      29.62F
BUFFALO        LGT RAIN  62  59  90 SE7       29.67F
MAPLE LAKE     LGT RAIN  63  61  94 SE3       29.66F
HUTCHINSON     RAIN      63  62  97 SE10      29.63F
$$
MNZ037-044-045-052-053-281100-
   East Central Minnesota

CITY           SKY/WX    TMP DP  RH WIND       PRES   REMARKS
PRINCETON      LGT RAIN  64  61  88 S14       29.64F
MORA           CLOUDY    59  46  63 SE5       29.68F
CAMBRIDGE      CLOUDY    66  52  59 SE7       29.64F
RUSH CITY      CLOUDY    61  50  67 SE7       29.68F
MOOSE LAKE     DRIZZLE   59  48  67 CALM      29.68F
HINCKLEY       FAIR      61  50  67 SE3       29.69F
CLOQUET        LGT RAIN  57  46  67 SE5       29.71F
MCGREGOR       CLOUDY    61  48  63 SE7       29.67F
$$
MNZ071>073-080-081-089-090-097-098-281100-
   Southwest Minnesota

CITY           SKY/WX    TMP DP  RH WIND       PRES   REMARKS
MONTEVIDEO     CLOUDY    64  61  88 S12G20    29.52R
GRANITE FALLS  CLOUDY    66  63  89 SE15G21   29.53F
CANBY          CLOUDY    69  64  84 CALM      29.53R
MARSHALL       LGT RAIN  66  61  84 S20G28    29.49F
REDWOOD FALLS  LGT RAIN  65  60  84 S13       29.55F
OLIVIA         CLOUDY    63  59  88 SE10      29.56R
PIPESTONE      CLOUDY    64  63  94 S13       29.56F
WINDOM         CLOUDY    64  63  94 SE6       29.59R
WORTHINGTON    CLOUDY    63  61  93 S15       29.58F
JACKSON        RAIN      64  64 100 SW17G23   29.61R
TRACY          LGT RAIN  65  61  86 SE15      29.51F
SLAYTON        CLOUDY    62  60  91 SE14      29.56F
$$
MNZ065>067-074>077-082>085-091>093-281100-
   South Central Minnesota

CITY           SKY/WX    TMP DP  RH WIND       PRES   REMARKS
MANKATO        RAIN      62  60  93 SE17      29.61F FOG
NEW ULM        LGT RAIN  63  61  94 SE16      29.56F
ST JAMES       LGT RAIN  63  61  94 E7        29.58F
FAIRMONT       CLOUDY    67  65  93 S18G24    29.61S
GLENCOE        LGT RAIN  63  63 100 E13       29.61F
FARIBAULT      RAIN      63  61  94 SE9       29.68F
OWATONNA       RAIN      64  63  94 S17       29.68F
WASECA         LGT RAIN  63  59  88 SE18G25   29.66F
ALBERT LEA     RAIN      61  61 100 SE15      29.69F
$$
MNZ078>079-086>088-094>096-281100-
   Southeast Minnesota

CITY           SKY/WX    TMP DP  RH WIND       PRES   REMARKS
ROCHESTER      LGT RAIN  63  60  90 S17       29.74S
RED WING       RAIN      63  54  72 CALM      29.74R
STANTON        RAIN      63  59  87 E6        29.71F
DODGE CENTER   TSTM      63  61  94 S17G24    29.72F
WINONA         CLOUDY    68  54  60 CALM      29.76S
AUSTIN         TSTM      64  61  88 S7        29.74F
PRESTON        CLOUDY    64  56  74 S17G24    29.76S
$$
ABBREVIATIONS USED IN REMARKS
   TC - TEMPERATURES IN CELSIUS
  WCI - WIND CHILL INDEX
   HX - HEAT INDEX
  VSB - VISIBILITY
$$




USA.gov is the U.S. government's official web portal to all federal, state and local government web resources and services.